Location: La Brionne
(46.1728°N, 1.7849°E)
Time: 18:19:27
(UTC+00:00)

Cosmos 1544 Rocket - Pass Details

Date: 27 October 2021
Orbit: 603 x 632 km, 82.5° (Epoch: 27 November)

Event Time Altitude Azimuth Distance (km) Brightness Sun altitude
Rises 03:59:04 0° 358° (N) 2,906 7.1 -26.1°
Reaches altitude 10° 04:01:29 10° 8° (N) 1,991 6.3 -25.7°
Maximum altitude 04:05:30 34° 74° (ENE) 1,025 5.2 -25.0°
Drops below altitude 10° 04:09:27 10° 140° (SE) 1,961 6.5 -24.3°
Sets 04:11:49 0° 149° (SSE) 2,856 7.3 -23.9°
